Overview Statistics Trail Chart Weather Telemetry Raw packets
 

This is the latest recevied weather packets stored in our database for station/object KD4EG. If no packets are shown the sender has not sent any weather packets the latest 10 day(s).

<< 83 84 85 86 87 88 89 >>
Time Temp. Humidity Pressure Rain* Wind** Luminosity Snow
1788016303 25.56° C 75% 1026.2 hPa 0 mm - 255 W/m² -
1788016003 26.11° C 73% 1026.3 hPa 0 mm - 233 W/m² -
1788015698 26.11° C 74% 1026.2 hPa 0 mm - 255 W/m² -
1788015398 26.11° C 73% 1026.1 hPa 0 mm - 615 W/m² -
1788015097 25.56° C 75% 1026 hPa 0 mm - 712 W/m² -
1788014796 25.56° C 76% 1026 hPa 0 mm - 621 W/m² -
1788014491 25° C 77% 1026.1 hPa 0 mm - 541 W/m² -
1788014187 25° C 76% 1026.2 hPa 0 mm - 267 W/m² -
1788013886 25° C 77% 1025.9 hPa 0 mm - 248 W/m² -
1788013595 25° C 77% 1026.1 hPa 0 mm - 331 W/m² -
1788013280 25.56° C 77% 1026.1 hPa 0 mm - 605 W/m² -
1788012980 25.56° C 75% 1026.1 hPa 0 mm - 563 W/m² -
1788012674 25° C 78% 1025.9 hPa 0 mm - 556 W/m² -
1788012370 25° C 78% 1025.8 hPa 0 mm - 462 W/m² -
1788012064 24.44° C 78% 1025.8 hPa 0 mm - 318 W/m² -
1788011763 23.89° C 79% 1025.9 hPa 0 mm - 425 W/m² -
1788011458 23.89° C 80% 1026.1 hPa 0 mm - 271 W/m² -
1788011157 23.89° C 83% 1026.1 hPa 0 mm - 336 W/m² -
1788010852 23.33° C 82% 1025.9 hPa 0 mm - 183 W/m² -
1788010551 23.33° C 83% 1025.9 hPa 0 mm - 259 W/m² -
1788010246 23.33° C 84% 1026 hPa 0 mm - 233 W/m² -
1788009945 22.78° C 85% 1026.1 hPa 0 mm - 163 W/m² -
1788009644 22.78° C 86% 1026 hPa 0 mm - 209 W/m² -
1788009338 22.22° C 86% 1026 hPa 0 mm - 140 W/m² -
1788009033 22.22° C 87% 1025.9 hPa 0 mm - 92 W/m² -

* Rain latest hour (hover to see other rain measurements)
** Current wind speed in m/s (hover to see current wind gust speed)